Flag for Canada Weather past 2 weeks in Norfolk, Ontario, Canada

Now
48 °F

Cool.


Feels Like: 48 °F
Forecast: 40 / 62 °F
Wind: 1 mph from Northeast

Location: Delhi CS

Current Time: Sep 18, 2014 at 9:52:17 PM

Latest Report: Sep 18, 2014 at 9:00 PM


Visibility: N/A

Pressure: 30.16 "Hg

Humidity: 86%

Dew point: 44 °F

Location of NorfolkLocation

Historic Weather in Norfolk — Graph

°F

Norfolk temperature yesterday

Maximum temperature yesterday: 64 °F (at 2:00 PM)
Minimum temperature yesterday: 42 °F (at 2:00 AM)
Average temperature yesterday: 52 °F

Past Weeks' High & Low Weather Summary

 TemperatureHumidityPressure
High86 °F (Sep 5, 4:00 PM)100% (Sep 4, 7:00 AM)30.33 "Hg (Sep 4, 7:00 AM)
Low38 °F (Sep 14, 3:00 AM)38% (Sep 7, 6:00 PM)29.56 "Hg (Sep 11, 3:00 AM)
Average59 °F82%30.05 "Hg
* Reported Sep 3 8:00 PM — Sep 18 8:00 PM, Norfolk, Weather by CustomWeather, © 2014

Note: Actual official high and low records may vary slightly from our data, if they occured in-between our weather recording intervals... More about our weather records

Advertising

Norfolk weather history for previous 24 hours

 ConditionsComfort  
Time TempWeatherWind HumidityBarometerVisibility
8:00 PM
Sep 18
51 °FCool.3 mph79%30.14 "HgN/A
7:00 PM57 °FCool.1 mph61%30.12 "HgN/A
6:00 PM60 °FRefreshingly cool.7 mph53%30.11 "HgN/A
5:00 PM59 °FRefreshingly cool.7 mph59%30.12 "HgN/A
4:00 PM59 °FRefreshingly cool.8 mph59%30.11 "HgN/A
3:00 PM59 °FCool.7 mph60%30.11 "HgN/A
2:00 PM59 °FCool.8 mph61%30.12 "HgN/A
1:00 PM59 °FCool.9 mph62%30.11 "HgN/A
12:00 PM56 °FCool.5 mph67%30.10 "HgN/A
11:00 AM54 °FCool.6 mph81%30.10 "HgN/A
10:00 AM53 °FCool.5 mph84%30.09 "HgN/A
9:00 AM49 °FCool.5 mph91%30.07 "HgN/A
8:00 AM45 °FCool.3 mph100%30.05 "HgN/A
7:00 AM42 °FQuite cool.1 mph100%30.03 "HgN/A
6:00 AM42 °FQuite cool.No wind100%30.00 "HgN/A
5:00 AM40 °FQuite cool.No wind100%29.99 "HgN/A
4:00 AM41 °FQuite cool.No wind100%29.98 "HgN/A
3:00 AM42 °FQuite cool.No wind100%29.98 "HgN/A
2:00 AM42 °FQuite cool.No wind99%29.98 "HgN/A
1:00 AM44 °FQuite cool.No wind100%29.97 "HgN/A
12:00 AM44 °FQuite cool.No wind99%29.97 "HgN/A
11:00 PM
Sep 17
45 °FCool.No wind97%29.96 "HgN/A
10:00 PM47 °FCool.No wind96%29.96 "HgN/A
9:00 PM49 °FCool.No wind90%29.96 "HgN/A
Weather by CustomWeather, © 2014

See weather overviewHow to use our weather pages